Vorticity
7 9 9 11 11 9 10 11 12 18 9 -5 13 9 12 11 7 8 7 24 -11 7 16 15 22 -14 15 5 12 4 7 9 13 3 1 -5 -0 20 24 12 -2 16 24 7
7 10 9 11 11 10 11 13 10 23 12 13 11 13 8 11 13 14 -0 18 -1 12 17 25 10 2 31 -2 14 9 3 7 17 8 10 -20 -1 21 35 10 6 14 11 19
8 9 10 10 10 10 12 15 11 12 -1 11 9 15 6 11 10 22 7 16 -1 11 24 5 -4 6 12 -2 18 17 16 11 43 38 28 15 12 21 41 6 10 8 46 14
8 9 10 9 10 9 11 13 7 10 -2 10 7 16 10 9 11 12 10 7 8 7 13 19 -24 13 16 29 14 16 12 6 -1 -10 -13 -3 7 16 24 41 16 26 31 -4
8 8 11 10 9 8 12 10 16 14 4 9 11 9 8 6 15 22 8 3 17 16 15 1 9 15 14 1 7 20 8 17 -4 4 -21 -14 -4 10 14 2 13 10 10 -8
8 8 11 10 10 10 9 8 10 16 5 8 9 8 7 5 11 19 17 -5 22 9 12 14 21 18 13 3 3 3 22 22 7 14 19 16 -6 2 5 12 7 2 -4 4
8 8 11 9 11 11 12 9 7 18 7 4 6 13 11 4 11 25 10 11 15 7 20 18 19 10 17 8 2 -2 21 27 9 6 26 8 5 5 -0 -1 12 13 13 7
8 9 10 9 11 12 12 12 5 14 14 -6 8 9 13 8 10 26 12 27 -5 15 23 22 16 10 11 7 7 2 3 22 11 24 10 10 2 5 12 6 -0 11 12 12
8 9 9 9 10 13 11 13 8 9 24 -12 11 1 9 4 9 22 19 20 23 12 14 26 4 9 9 1 23 10 10 11 30 5 10 14 10 13 14 7 -1 9 9 11
9 9 8 9 10 14 10 12 10 7 26 -10 12 0 10 8 9 22 8 14 34 16 15 20 13 4 20 9 10 -10 30 2 4 16 14 2 14 23 10 11 2 9 8 9
9 10 8 10 10 15 12 11 10 8 24 -12 12 -0 8 4 10 15 8 28 22 14 16 14 13 8 11 12 -4 8 17 11 11 10 15 4 3 8 16 8 8 7 7 8
10 10 8 10 11 16 13 7 11 6 23 -7 11 2 8 4 12 16 16 14 17 10 22 16 14 2 9 9 14 6 6 16 9 13 3 4 17 -3 11 9 10 9 11 10
11 10 9 10 12 16 14 5 9 8 24 -12 11 6 6 4 11 16 19 13 15 13 9 13 11 8 7 19 -8 6 17 9 9 23 0 1 17 -3 10 10 12 12 11 10
12 10 9 11 14 15 13 6 6 15 26 -8 7 4 10 2 11 20 17 9 16 11 10 8 13 17 14 -1 5 -3 10 13 10 18 6 13 7 12 10 10 11 10 10 12
13 9 8 15 16 12 12 10 2 16 9 7 12 -3 14 6 9 20 16 11 13 6 9 14 17 7 -4 -11 17 -5 15 15 13 4 12 11 11 12 12 11 10 10 10 9
10 6 12 17 17 11 9 5 6 5 9 10 20 -11 11 12 5 16 15 16 10 8 8 8 15 17 12 8 4 -8 14 11 12 12 13 12 11 12 11 11 11 11 10 9
9 7 17 18 14 15 10 0 8 2 17 11 18 -3 2 5 9 12 14 22 7 9 8 6 10 1 8 -1 6 14 18 15 9 9 9 11 9 9 11 11 10 9 8 8
11 6 20 19 8 15 8 2 6 2 23 21 5 -20 14 -1 21 17 15 22 14 1 9 6 6 4 9 -12 11 10 22 20 12 9 7 9 12 15 15 14 11 9 7 6
15 6 23 18 8 17 11 7 8 16 10 13 -7 7 17 -6 18 18 19 26 17 13 5 9 11 6 -8 -12 15 7 8 25 18 12 8 6 6 7 8 12 18 21 21 16
20 8 25 8 12 17 16 18 7 20 10 9 -18 5 6 14 32 4 38 19 13 11 15 16 19 11 3 -8 6 4 7 8 22 17 10 6 3 2 1 1 2 3 12 19
24 11 22 12 12 20 21 3 26 18 15 -8 -9 6 10 6 26 16 35 7 14 14 9 13 14 16 -7 -6 -7 14 12 4 8 15 18 10 5 3 2 2 2 2 5 4
28 16 23 23 18 12 6 -3 10 18 -8 -8 7 5 8 22 26 28 10 21 13 9 -3 24 13 -4 -5 -14 12 20 19 13 6 6 9 15 11 10 10 7 6 5 5 8
37 27 10 23 5 12 1 -2 -16 5 6 9 9 6 23 12 24 15 20 14 6 7 26 10 -11 10 -15 14 12 14 21 21 15 9 5 7 9 11 11 11 9 8 9 10
46 27 5 -0 14 -7 -1 11 10 7 11 14 11 7 24 21 38 9 13 3 23 16 12 -23 0 -1 15 12 8 15 27 25 27 21 16 10 8 8 9 11 12 13 13 12
47 19 7 -13 -1 15 11 11 6 12 12 14 10 17 39 22 18 15 13 17 11 4 -31 -9 8 16 16 8 4 11 23 20 20 20 19 16 13 13 14 14 14 13 11 8
21 14 -14 4 4 9 11 14 8 12 14 14 14 32 10 13 5 19 6 14 -8 -28 4 7 19 17 12 4 2 7 20 19 19 18 18 18 17 15 12 11 11 12 13 18
-12 4 28 5 -4 7 4 9 16 13 15 14 26 23 3 10 22 -4 12 -29 -2 11 11 16 16 15 8 4 2 7 20 20 18 18 17 17 16 16 16 16 17 16 14 12
Height
3101 3097 3091 3086 3080 3074 3068 3062 3056 3050 3045 3041 3031 3029 3027 3024 3021 3017 3013 3009 3005 3000 2996 2992 2990 2988 2984 2981 2977 2971 2969 2965 2962 2961 2959 2956 2953 2948 2944 2945 2946 2946 2954 2971
3100 3096 3091 3085 3079 3073 3068 3061 3056 3050 3044 3038 3034 3030 3028 3024 3020 3016 3012 3009 3005 3001 2997 2994 2989 2987 2984 2982 2977 2973 2970 2966 2963 2961 2961 2959 2954 2952 2947 2947 2948 2951 2953 2970
3099 3095 3089 3083 3078 3072 3067 3061 3056 3050 3044 3039 3036 3031 3028 3024 3019 3014 3010 3007 3003 2999 2996 2993 2990 2986 2983 2981 2977 2975 2973 2970 2968 2970 2970 2966 2961 2956 2950 2950 2951 2954 2958 2963
3098 3093 3088 3082 3076 3071 3067 3061 3057 3051 3046 3040 3036 3032 3028 3023 3018 3014 3010 3006 3003 2999 2994 2991 2989 2986 2983 2981 2978 2975 2974 2973 2972 2971 2971 2968 2963 2959 2954 2950 2952 2953 2962 2962
3097 3093 3087 3081 3075 3070 3066 3062 3057 3051 3046 3042 3037 3032 3028 3022 3017 3012 3009 3005 3001 2997 2993 2992 2987 2985 2984 2982 2980 2976 2975 2975 2974 2973 2972 2970 2968 2966 2963 2958 2958 2958 2960 2962
3097 3092 3087 3080 3074 3069 3065 3061 3056 3051 3047 3043 3038 3033 3027 3022 3017 3013 3007 3003 2998 2995 2992 2988 2986 2985 2983 2982 2980 2978 2976 2975 2975 2973 2972 2972 2973 2971 2970 2969 2968 2968 2968 2969
3096 3092 3086 3079 3074 3069 3065 3060 3056 3051 3047 3044 3040 3035 3029 3024 3018 3013 3008 3002 2997 2995 2990 2986 2984 2984 2983 2982 2981 2979 2976 2974 2974 2973 2972 2978 2978 2975 2973 2971 2969 2969 2969 2969
3095 3091 3085 3079 3073 3068 3064 3059 3055 3050 3047 3044 3040 3035 3031 3028 3021 3013 3006 3001 2998 2992 2988 2986 2984 2984 2983 2982 2981 2980 2978 2975 2974 2973 2975 2979 2977 2976 2975 2974 2974 2971 2969 2969
3094 3089 3083 3077 3072 3066 3062 3058 3054 3050 3047 3044 3039 3035 3029 3022 3016 3013 3008 3001 2997 2993 2989 2987 2986 2986 2986 2983 2981 2979 2978 2976 2975 2974 2975 2977 2978 2976 2975 2975 2974 2972 2971 2969
3092 3087 3082 3077 3071 3066 3062 3058 3054 3049 3046 3044 3040 3035 3029 3023 3017 3011 3005 3001 2997 2994 2991 2989 2989 2990 2988 2987 2985 2980 2978 2977 2976 2976 2976 2979 2978 2976 2976 2977 2980 2972 2970 2969
3090 3086 3080 3076 3070 3065 3062 3058 3054 3050 3045 3043 3039 3035 3030 3024 3018 3011 3007 3003 2999 2996 2993 2993 2992 2992 2991 2990 2988 2985 2983 2980 2979 2978 2978 2980 2978 2977 2977 2976 2973 2971 2970 2969
3088 3084 3079 3075 3070 3065 3062 3058 3054 3050 3046 3044 3040 3035 3030 3025 3020 3014 3008 3005 3001 2998 2997 2996 2994 2994 2993 2991 2990 2988 2987 2986 2984 2983 2981 2979 2977 2976 2975 2973 2972 2970 2969 2968
3086 3082 3078 3073 3069 3064 3061 3058 3054 3050 3046 3043 3039 3035 3031 3026 3020 3015 3012 3006 3003 3001 2999 2997 2996 2995 2994 2993 2992 2990 2988 2985 2983 2981 2979 2977 2975 2974 2972 2971 2970 2969 2967 2965
3085 3080 3076 3072 3067 3064 3061 3057 3054 3050 3046 3043 3041 3036 3031 3026 3021 3015 3011 3007 3004 3003 3001 2999 2997 2996 2995 2994 2993 2990 2988 2985 2982 2980 2977 2975 2973 2972 2969 2967 2967 2966 2965 2964
3083 3078 3074 3070 3066 3063 3060 3057 3054 3050 3050 3044 3039 3036 3031 3026 3021 3016 3011 3008 3005 3003 3001 3000 2998 2997 2996 2994 2992 2989 2986 2983 2980 2978 2975 2973 2971 2969 2968 2966 2964 2962 2961 2960
3082 3077 3072 3068 3064 3061 3059 3057 3054 3049 3046 3042 3039 3036 3030 3025 3020 3015 3011 3008 3006 3004 3002 3000 2999 2998 2997 2994 2991 2988 2984 2981 2978 2976 2973 2971 2969 2967 2965 2963 2961 2960 2958 2957
3080 3075 3070 3066 3062 3060 3058 3057 3053 3048 3044 3042 3038 3035 3030 3025 3020 3014 3010 3007 3005 3003 3002 2999 2998 2996 2996 2993 2990 2986 2982 2978 2976 2973 2971 2970 2967 2965 2963 2961 2959 2957 2956 2954
3079 3073 3068 3064 3061 3058 3057 3054 3051 3047 3044 3041 3038 3035 3028 3024 3018 3013 3008 3005 3003 3001 3000 2998 2996 2995 2993 2992 2988 2983 2979 2975 2973 2971 2969 2967 2964 2962 2960 2958 2956 2955 2953 2950
3077 3072 3067 3063 3060 3057 3055 3053 3050 3046 3047 3041 3038 3034 3028 3022 3016 3010 3006 3003 3000 2999 2997 2996 2995 2992 2990 2988 2985 2981 2977 2973 2970 2967 2966 2964 2962 2960 2957 2955 2952 2950 2949 2947
3075 3070 3065 3061 3059 3055 3054 3050 3049 3043 3042 3038 3036 3031 3026 3022 3014 3008 3004 3001 2999 2996 2996 2993 2990 2988 2988 2985 2981 2977 2974 2970 2966 2964 2962 2960 2959 2957 2955 2952 2949 2947 2944 2941
3074 3069 3064 3061 3057 3055 3052 3050 3048 3044 3040 3036 3033 3028 3022 3017 3012 3007 3004 3001 2997 2996 2995 2992 2987 2985 2984 2981 2977 2973 2969 2966 2963 2960 2958 2956 2954 2952 2950 2948 2946 2943 2940 2937
3074 3069 3064 3060 3057 3055 3054 3051 3049 3045 3041 3037 3031 3026 3020 3013 3009 3005 3002 3000 2998 2995 2993 2990 2985 2982 2980 2976 2972 2967 2963 2959 2957 2954 2952 2950 2947 2945 2943 2942 2939 2937 2934 2931
3072 3068 3064 3062 3061 3059 3055 3053 3049 3046 3041 3035 3029 3024 3018 3010 3007 3004 3002 2999 2997 2993 2989 2986 2983 2980 2977 2971 2966 2961 2956 2951 2948 2947 2944 2943 2941 2939 2936 2934 2932 2929 2927 2924
3072 3069 3066 3065 3064 3060 3056 3052 3048 3043 3037 3031 3026 3022 3018 3010 3007 3004 3001 2999 2995 2991 2988 2984 2981 2976 2971 2966 2961 2954 2949 2943 2940 2938 2936 2934 2932 2930 2928 2926 2923 2921 2919 2917
3074 3071 3068 3066 3064 3059 3054 3049 3044 3039 3033 3028 3023 3017 3013 3009 3007 3004 3001 2998 2994 2990 2986 2981 2977 2971 2966 2961 2956 2950 2943 2938 2934 2930 2928 2926 2924 2922 2920 2918 2915 2913 2911 2908
3074 3070 3067 3063 3059 3055 3050 3045 3040 3035 3030 3025 3020 3015 3010 3007 3006 3004 3000 2997 2992 2988 2982 2977 2971 2966 2961 2957 2952 2945 2938 2932 2928 2924 2921 2918 2916 2914 2912 2910 2908 2905 2903 2901
3073 3068 3064 3059 3055 3051 3046 3041 3036 3031 3026 3022 3018 3015 3012 3008 3004 3002 2997 2994 2989 2983 2977 2971 2965 2961 2957 2952 2947 2941 2934 2928 2923 2919 2916 2913 2910 2907 2905 2903 2900 2897 2895 2893